User: anonymous   Login
Location: Caltech
(34.1382°N, 118.1253°W)
Time: 07:25:00
(UTC-07:00)
Language:

Cosmos 2219 - Orbit

View from above orbital plane
View from above orbital plane
View from above satellite
View from above satellite

Ground track
Ground track

The orbit data is extracted from the following two-line orbital elements,

1 22219U 92076A   17084.91272234 +.00000081 +00000-0 +67895-4 0  9998
2 22219 071.0611 011.6639 0017980 162.0623 198.1138 14.13599651256126
Epoch (UTC): 25 March 2017 21:54:19
Eccentricity: 0.0017980
inclination: 71.0611°
perigee height: 834 km
apogee height: 860 km
right ascension of ascending node: 11.6639°
argument of perigee: 162.0623°
revolutions per day: 14.13599651
mean anomaly at epoch: 198.1138°
orbit number at epoch: 25612

The dashed part of the orbit path shows where the satellite is in the earth's shadow,  

DLR